Sea Cloud II — 9HUE6 — position and weather

sailwx.info

Track history (hours):
 
Tides and Currents Weather Stations Pressure Air Temp Water Temp Dewpoint Dewpoint Depression Visibility Wind Speed Wind Dir Waves Ship Positions

Sea Cloud II

Ship's website: http://www.seacloud.com/en/the-ships/sea-cloud-ii.html

Last reported at 2014-Oct-30 18:11 UTC. Time now 2014-Oct-31 21:40 UTC.
Position N 38°48' E 008°29'.

Length 117 m; draft 5.8 m.

Type: Passenger vessel. MMSI: 248953000.

Date/timePositionNaut miles runAvg speedWind from/ knotsBaromVisibWave heightAir tempDewpointWater temp
2014-Oct-30 18:11N 38°48' E 008°29'1312.4
2014-Oct-30 17:08N 38°48' E 008°46'712.4
2014-Oct-30 16:33N 38°50' E 008°55'5 4.6
2014-Oct-30 15:25N 38°53' E 009°00'3 3.1
2014-Oct-30 14:32N 38°55' E 009°03'1010.1
2014-Oct-30 13:33N 39°04' E 009°08'9 8.6
2014-Oct-30 12:33N 39°13' E 009°06'0 0.0
2014-Oct-30 11:33N 39°13' E 009°06'0 0.0
2014-Oct-30 10:33N 39°13' E 009°06'0 0.0
2014-Oct-30 09:33N 39°13' E 009°06'0 0.0
2014-Oct-30 08:33N 39°13' E 009°06'0 0.0
2014-Oct-30 07:33N 39°13' E 009°06'0 0.4
2014-Oct-30 06:33N 39°12' E 009°07'5 4.8
2014-Oct-30 05:33N 39°08' E 009°10'5 5.2
2014-Oct-30 04:33N 39°06' E 009°16'5 5.4
2014-Oct-30 03:33N 39°03' E 009°22'5 4.9
2014-Oct-30 02:30N 38°59' E 009°27'171 5.4
2014-Oct-28 18:33N 38°21' E 013°01'1212.3
2014-Oct-28 17:33N 38°18' E 013°17'1211.6
2014-Oct-28 16:33N 38°09' E 013°25'3 3.0
2014-Oct-28 15:33N 38°08' E 013°22'0 0.0
2014-Oct-28 14:33N 38°08' E 013°22'0 0.0
2014-Oct-28 13:33N 38°08' E 013°22'0 0.0
2014-Oct-28 12:33N 38°08' E 013°22'0 0.0
2014-Oct-28 11:33N 38°08' E 013°22'0 0.0
2014-Oct-28 10:33N 38°08' E 013°22'0 0.0
2014-Oct-28 09:33N 38°08' E 013°22'0 0.0
2014-Oct-28 08:33N 38°08' E 013°22'0 0.0
2014-Oct-28 07:33N 38°08' E 013°22'2 1.9
2014-Oct-28 06:34N 38°08' E 013°24'5 5.1
2014-Oct-28 05:34N 38°11' E 013°30'7 7.1
2014-Oct-28 04:34N 38°15' E 013°37'7 7.2
2014-Oct-28 03:34N 38°19' E 013°45'  
2014-Oct-22 17:28N 38°26' E 015°11'65 3.0
2014-Oct-21 19:20N 38°11' E 013°50'2 2.6
2014-Oct-21 18:33N 38°10' E 013°48'4 2.9
2014-Oct-21 17:10N 38°09' E 013°43'2 3.9
2014-Oct-21 16:33N 38°08' E 013°40'2 1.6
2014-Oct-21 15:29N 38°08' E 013°37'1 1.3
2014-Oct-21 14:33N 38°09' E 013°36'2 1.9
2014-Oct-21 13:33N 38°09' E 013°34'2 1.9
2014-Oct-21 12:33N 38°09' E 013°31'8 7.6
2014-Oct-21 11:33N 38°08' E 013°22'0 0.0
2014-Oct-21 10:31N 38°08' E 013°22'0 0.0
2014-Oct-21 09:31N 38°08' E 013°22'0 0.0
2014-Oct-21 08:31N 38°08' E 013°22'0 0.0
2014-Oct-21 07:31N 38°08' E 013°22'0 0.0
2014-Oct-21 06:31N 38°08' E 013°22'1 1.3
2014-Oct-21 05:33N 38°08' E 013°23'5 5.3
2014-Oct-21 04:33N 38°13' E 013°24'6 6.0
2014-Oct-21 03:33N 38°18' E 013°19'7 6.7
2014-Oct-21 02:33N 38°17' E 013°11'7 7.1
2014-Oct-21 01:33N 38°16' E 013°02'8 7.6
2014-Oct-21 00:33N 38°15' E 012°52'9 7.6
2014-Oct-20 23:26N 38°14' E 012°42'7 7.4
2014-Oct-20 22:32N 38°13' E 012°33'  
Track history (hours):
 
Tides and Currents Weather Stations Pressure Air Temp Water Temp Dewpoint Dewpoint Depression Visibility Wind Speed Wind Dir Waves Ship Positions

Sea Cloud II

Ship's website: http://www.seacloud.com/en/the-ships/sea-cloud-ii.html

Last reported at 2014-Oct-30 18:11 UTC. Time now 2014-Oct-31 21:40 UTC.
Position N 38°48' E 008°29'.

Length 117 m; draft 5.8 m.

Type: Passenger vessel. MMSI: 248953000.

Date/timePositionNaut miles runAvg speedWind from/ knotsBaromVisibWave heightAir tempDewpointWater temp
2014-Oct-30 18:11N 38°48' E 008°29'1312.4
2014-Oct-30 17:08N 38°48' E 008°46'712.4
2014-Oct-30 16:33N 38°50' E 008°55'5 4.6
2014-Oct-30 15:25N 38°53' E 009°00'3 3.1
2014-Oct-30 14:32N 38°55' E 009°03'1010.1
2014-Oct-30 13:33N 39°04' E 009°08'9 8.6
2014-Oct-30 12:33N 39°13' E 009°06'0 0.0
2014-Oct-30 11:33N 39°13' E 009°06'0 0.0
2014-Oct-30 10:33N 39°13' E 009°06'0 0.0
2014-Oct-30 09:33N 39°13' E 009°06'0 0.0
2014-Oct-30 08:33N 39°13' E 009°06'0 0.0
2014-Oct-30 07:33N 39°13' E 009°06'0 0.4
2014-Oct-30 06:33N 39°12' E 009°07'5 4.8
2014-Oct-30 05:33N 39°08' E 009°10'5 5.2
2014-Oct-30 04:33N 39°06' E 009°16'5 5.4
2014-Oct-30 03:33N 39°03' E 009°22'5 4.9
2014-Oct-30 02:30N 38°59' E 009°27'171 5.4
2014-Oct-28 18:33N 38°21' E 013°01'1212.3
2014-Oct-28 17:33N 38°18' E 013°17'1211.6
2014-Oct-28 16:33N 38°09' E 013°25'3 3.0
2014-Oct-28 15:33N 38°08' E 013°22'0 0.0
2014-Oct-28 14:33N 38°08' E 013°22'0 0.0
2014-Oct-28 13:33N 38°08' E 013°22'0 0.0
2014-Oct-28 12:33N 38°08' E 013°22'0 0.0
2014-Oct-28 11:33N 38°08' E 013°22'0 0.0
2014-Oct-28 10:33N 38°08' E 013°22'0 0.0
2014-Oct-28 09:33N 38°08' E 013°22'0 0.0
2014-Oct-28 08:33N 38°08' E 013°22'0 0.0
2014-Oct-28 07:33N 38°08' E 013°22'2 1.9
2014-Oct-28 06:34N 38°08' E 013°24'5 5.1
2014-Oct-28 05:34N 38°11' E 013°30'7 7.1
2014-Oct-28 04:34N 38°15' E 013°37'7 7.2
2014-Oct-28 03:34N 38°19' E 013°45'  
2014-Oct-22 17:28N 38°26' E 015°11'65 3.0
2014-Oct-21 19:20N 38°11' E 013°50'2 2.6
2014-Oct-21 18:33N 38°10' E 013°48'4 2.9
2014-Oct-21 17:10N 38°09' E 013°43'2 3.9
2014-Oct-21 16:33N 38°08' E 013°40'2 1.6
2014-Oct-21 15:29N 38°08' E 013°37'1 1.3
2014-Oct-21 14:33N 38°09' E 013°36'2 1.9
2014-Oct-21 13:33N 38°09' E 013°34'2 1.9
2014-Oct-21 12:33N 38°09' E 013°31'8 7.6
2014-Oct-21 11:33N 38°08' E 013°22'0 0.0
2014-Oct-21 10:31N 38°08' E 013°22'0 0.0
2014-Oct-21 09:31N 38°08' E 013°22'0 0.0
2014-Oct-21 08:31N 38°08' E 013°22'0 0.0
2014-Oct-21 07:31N 38°08' E 013°22'0 0.0
2014-Oct-21 06:31N 38°08' E 013°22'1 1.3
2014-Oct-21 05:33N 38°08' E 013°23'5 5.3
2014-Oct-21 04:33N 38°13' E 013°24'6 6.0
2014-Oct-21 03:33N 38°18' E 013°19'7 6.7
2014-Oct-21 02:33N 38°17' E 013°11'7 7.1
2014-Oct-21 01:33N 38°16' E 013°02'8 7.6
2014-Oct-21 00:33N 38°15' E 012°52'9 7.6
2014-Oct-20 23:26N 38°14' E 012°42'7 7.4
2014-Oct-20 22:32N 38°13' E 012°33'  

Dump ship's entire track history